TimeHST,TemperatureF,Dew PointF,Humidity,Sea Level PressureIn,VisibilityMPH,Wind Direction,Wind SpeedMPH,Gust SpeedMPH,PrecipitationIn,Events,Conditions,WindDirDegrees,DateUTC
12:56 AM,58.5,11.1,15,30.35,12.0,SE,11.5,-,N/A,,Clear,130,2013-12-13 10:56:00
1:56 AM,61.9,9.0,12,30.33,12.0,ESE,11.5,18.4,N/A,,Clear,120,2013-12-13 11:56:00
2:41 AM,48.2,46.4,93,30.32,0.4,SW,2.3,-,N/A,Fog,Fog,220,2013-12-13 12:41:00
2:56 AM,46.9,45.7,95,30.31,0.5,West,2.3,-,N/A,Fog,Patches of Fog,280,2013-12-13 12:56:00
3:16 AM,60.8,19.4,20,30.31,12.0,South,4.6,13.8,N/A,,Haze,170,2013-12-13 13:16:00
3:21 AM,51.8,44.6,76,30.31,0.9,WSW,2.3,12.7,N/A,Fog,Patches of Fog,250,2013-12-13 13:21:00
3:31 AM,46.4,44.6,93,30.30,0.1,SW,3.5,-,N/A,Fog-Rain,Light Rain Showers,230,2013-12-13 13:31:00
3:48 AM,46.4,46.4,100,30.31,0.1,ESE,5.8,11.5,N/A,Fog,Fog,120,2013-12-13 13:48:00
3:56 AM,46.8,46.2,98,30.31,0.2,SE,4.6,-,N/A,Fog,Fog,130,2013-12-13 13:56:00
4:11 AM,46.4,44.6,93,30.32,1.9,ESE,2.3,-,N/A,Fog,Patches of Fog,120,2013-12-13 14:11:00
4:16 AM,46.4,44.6,93,30.32,2.8,ESE,1.2,-,N/A,Fog,Patches of Fog,110,2013-12-13 14:16:00
4:21 AM,44.6,44.6,100,30.32,4.0,North,1.2,-,N/A,Fog,Patches of Fog,350,2013-12-13 14:21:00
4:31 AM,44.6,44.6,100,30.33,6.0,NE,2.3,-,N/A,Fog,Patches of Fog,50,2013-12-13 14:31:00
4:56 AM,44.1,41.4,90,30.32,8.0,ESE,4.6,-,N/A,,Clear,120,2013-12-13 14:56:00
5:56 AM,46.6,38.3,73,30.33,12.0,NNW,3.5,-,N/A,,Clear,330,2013-12-13 15:56:00
6:56 AM,46.0,26.4,46,30.33,9.0,East,6.9,-,N/A,,Clear,100,2013-12-13 16:56:00
7:56 AM,51.6,36.7,57,30.35,12.0,North,2.3,-,N/A,,Clear,350,2013-12-13 17:56:00
8:16 AM,53.6,35.6,51,30.37,2.8,North,1.2,-,N/A,,Haze,350,2013-12-13 18:16:00
8:21 AM,55.4,35.6,47,30.37,4.0,WSW,2.3,-,N/A,,Clear,250,2013-12-13 18:21:00
8:56 AM,59.2,42.3,53,30.37,12.0,ESE,6.9,-,N/A,,Clear,120,2013-12-13 18:56:00
9:56 AM,63.1,47.5,57,30.37,12.0,SE,12.7,21.9,N/A,,Partly Cloudy,140,2013-12-13 19:56:00
10:56 AM,66.4,44.2,45,30.37,12.0,South,10.4,18.4,N/A,,Clear,190,2013-12-13 20:56:00
11:56 AM,65.1,49.1,56,30.35,12.0,WSW,10.4,17.3,N/A,,Partly Cloudy,250,2013-12-13 21:56:00
12:56 PM,64.9,50.2,59,30.33,11.0,WSW,6.9,-,N/A,,Partly Cloudy,250,2013-12-13 22:56:00
1:56 PM,64.4,51.8,64,30.30,11.0,West,9.2,-,N/A,,Partly Cloudy,260,2013-12-13 23:56:00
2:56 PM,64.6,52.5,65,30.29,9.0,WSW,5.8,-,N/A,,Clear,240,2013-12-14 00:56:00
3:56 PM,62.1,54.0,75,30.30,8.0,West,6.9,-,N/A,,Partly Cloudy,260,2013-12-14 01:56:00
4:56 PM,60.6,53.8,78,30.30,7.0,West,5.8,-,N/A,,Partly Cloudy,260,2013-12-14 02:56:00
5:56 PM,57.2,54.1,89,30.31,5.0,WSW,2.3,-,N/A,,Scattered Clouds,250,2013-12-14 03:56:00
6:56 PM,55.0,53.1,93,30.33,2.8,West,4.6,-,N/A,,Mostly Cloudy,260,2013-12-14 04:56:00
7:01 PM,55.4,53.6,94,30.34,0.8,West,3.5,-,N/A,,Mostly Cloudy,260,2013-12-14 05:01:00
7:02 PM,55.4,53.6,94,30.34,0.6,West,3.5,-,N/A,,Heavy Drizzle,260,2013-12-14 05:02:00
7:17 PM,55.4,53.6,94,30.34,4.0,West,3.5,-,N/A,Rain,Light Rain Showers,270,2013-12-14 05:17:00
7:27 PM,55.4,53.6,94,30.34,4.0,West,2.3,-,N/A,,Scattered Clouds,280,2013-12-14 05:27:00
7:52 PM,53.6,51.8,94,30.35,2.5,West,2.3,-,N/A,,Clear,270,2013-12-14 05:52:00
7:56 PM,53.8,52.3,95,30.35,2.0,West,1.2,-,0.00,,Clear,270,2013-12-14 05:56:00
8:06 PM,53.6,51.8,94,30.35,3.0,Calm,Calm,-,N/A,,Scattered Clouds,0,2013-12-14 06:06:00
8:56 PM,52.3,48.0,85,30.35,9.0,East,2.3,-,N/A,,Mostly Cloudy,100,2013-12-14 06:56:00
9:56 PM,52.3,42.8,70,30.34,12.0,WNW,2.3,-,N/A,,Clear,290,2013-12-14 07:56:00
10:56 PM,52.3,29.3,41,30.34,12.0,NNW,4.6,-,N/A,,Scattered Clouds,340,2013-12-14 08:56:00
11:56 PM,48.7,27.7,44,30.33,12.0,ESE,4.6,-,N/A,,Mostly Cloudy,120,2013-12-14 09:56:00